Torna al catalogo

FENGYUN 1C DEB

AttivoPO
NORAD 30857·DEBRIS·🇨🇳 China

Lanciato May 10, 1999 da Taiyuan Satellite Launch Center

Loading…

Prossimi Passaggi (prossime 24 ore)

TLE

AggiornatoSource: Space-Track

Epoca: Sep 12, 2026, 12:18 UTC

1 30857U 99025AWT 26255.51254235  .00009537  00000-0  19709-2 0  9997
2 30857  98.9705 270.8802 0035664 181.3807 178.7298 14.60183497  7093

Traccia FENGYUN 1C DEB in tempo reale con AllMySat

Download on the App Store